Flag for U.S.A. Weather past 2 weeks in Gloucester, Massachusetts, U.S.A.

Now
70 °F

Sunny.


Feels Like: 77 °F
Forecast: 53 / 68 °F
Wind: 18 mph from West

Location: Beverly Municipal Airport

Current Time: Sep 22, 2014 at 4:42:25 PM

Latest Report: Sep 22, 2014 at 3:53 PM


Visibility: 10 mi

Pressure: 29.76 "Hg

Humidity: 35%

Dew point: 41 °F

Location of GloucesterLocation

Historic Weather in Gloucester — Graph

°F

Gloucester temperature yesterday

Maximum temperature yesterday: 78 °F (at 12:53 PM)
Minimum temperature yesterday: 58 °F (at 1:53 AM)
Average temperature yesterday: 67 °F

Past Weeks' High & Low Weather Summary

 TemperatureHumidityPressure
High79 °F (Sep 11, 3:53 PM)97% (Sep 11, 2:53 AM)30.41 "Hg (Sep 11, 2:53 AM)
Low35 °F (Sep 20, 5:53 AM)33% (Sep 19, 3:53 PM)29.50 "Hg (Sep 22, 2:53 AM)
Average59 °F75%30.08 "Hg
* Reported Sep 7 3:53 PM — Sep 22 3:53 PM, Gloucester, Weather by CustomWeather, © 2014

Note: Actual official high and low records may vary slightly from our data, if they occured in-between our weather recording intervals... More about our weather records

Advertising

Gloucester weather history for previous 24 hours

 ConditionsComfort  
Time TempWeatherWind HumidityBarometerVisibility
3:53 PM
Sep 22
70 °FSunny.18 mph35%29.76 "Hg10 mi
2:53 PM72 °FSunny.15 mph40%29.74 "Hg10 mi
1:53 PM74 °FScattered clouds.20 mph38%29.72 "Hg10 mi
12:53 PM72 °FScattered clouds.17 mph43%29.70 "Hg10 mi
11:53 AM70 °FPartly sunny.16 mph47%29.70 "Hg10 mi
10:53 AM69 °FScattered clouds.22 mph51%29.68 "Hg10 mi
9:53 AM69 °FPassing clouds.17 mph55%29.66 "Hg10 mi
8:53 AM67 °FPassing clouds.13 mph63%29.65 "Hg10 mi
7:53 AM64 °FPassing clouds.9 mph70%29.62 "Hg10 mi
6:53 AM63 °FClear.10 mph75%29.60 "Hg10 mi
5:53 AM63 °FClear.7 mph84%29.56 "Hg10 mi
4:53 AM66 °FPassing clouds.9 mph87%29.53 "Hg10 mi
3:53 AM67 °FClear.8 mph93%29.50 "Hg10 mi
2:53 AM67 °FPassing clouds.8 mph93%29.50 "Hg10 mi
2:00 AM68 °FFog.10 mph93%29.52 "Hg6 mi
12:53 AM67 °FFog.5 mph93%29.52 "Hg0 mi
11:53 PM
Sep 21
66 °FFog.No wind96%29.52 "Hg0 mi
10:53 PM65 °FFog.No wind97%29.54 "Hg0 mi
9:53 PM65 °FFog.No wind97%29.56 "Hg0 mi
8:53 PM65 °FFog.5 mph97%29.58 "Hg0 mi
7:53 PM66 °FFog.7 mph93%29.60 "Hg0 mi
6:53 PM66 °FFog.6 mph96%29.61 "Hg1 mi
5:53 PM67 °FLow clouds.7 mph93%29.64 "Hg7 mi
4:53 PM68 °FPartly sunny.10 mph90%29.67 "Hg9 mi
Weather by CustomWeather, © 2014

See weather overviewHow to use our weather pages